Weather History for China Lake, CA

Change the Weather History Date:

Sunday, May 26, 2013

  Actual Average Record
Temperature  
Mean Temperature 74 °F -  
Max Temperature 90 °F 89 °F 104 °F (2014)
Min Temperature 57 °F 61 °F 45 °F (2008)
Cooling Degree Days 8    
Growing Degree Days 24 (Base 50)    
Moisture  
Dew Point 29 °F    
Average Humidity 19    
Maximum Humidity 32    
Minimum Humidity 11    
Precipitation  
Precipitation 0.00 in - - ()
Sea Level Pressure  
Sea Level Pressure 29.80 in    
Wind  
Wind Speed 5 mph (SSW)    
Max Wind Speed 18 mph    
Max Gust Speed 26 mph    
Visibility 10 miles    
Events      
Averages and records for this station are not official NWS values.
T = Trace of Precipitation, MM = Missing Value Source: NWS Daily Summary

Daily Weather History Graph

Daily Weather History Graph

Search for Another Location

Airport:

Trip Planner

Search our weather history database for the weather conditions in past years. The results will help you decide how hot, cold, wet, or windy it might be!

Date:

Astronomy

May. 26, 2013 Rise Set
Actual Time 5:38 AM PDT 7:57 PM PDT
Civil Twilight 5:09 AM PDT 8:26 PM PDT
Nautical Twilight 4:33 AM PDT 9:02 PM PDT
Astronomical Twilight 3:54 AM PDT 9:42 PM PDT
Moon 9:50 PM PDT (5/26) 7:12 AM PDT (5/26)
Length of Visible Light 15h 17m
Length of Day
14h 19m
Waning Gibbous, 96% of the Moon is Illuminated
May 26
Waning Gibbous
May 31
Last Quarter
Jun 8
New
Jun 16
First Quarter
Jun 23
Full

Hourly Weather History & Observations

Time (PDT) Temp. Dew Point Humidity Pressure Visibility Wind Dir Wind Speed Gust Speed Precip Events Conditions
12:56 AM 70.0 °F 26.1 °F 19% 29.79 in 10.0 mi Calm Calm - N/A   Clear
1:56 AM 64.0 °F 25.0 °F 23% 29.79 in 10.0 mi SSE 5.8 mph - N/A   Clear
2:56 AM 64.0 °F 23.0 °F 21% 29.78 in 10.0 mi South 6.9 mph - N/A   Clear
3:56 AM 57.9 °F 23.0 °F 26% 29.78 in 10.0 mi NW 3.5 mph - N/A   Clear
4:56 AM 61.0 °F 24.1 °F 24% 29.78 in 10.0 mi SSW 5.8 mph - N/A   Clear
5:56 AM 62.1 °F 26.1 °F 25% 29.81 in 10.0 mi SSW 3.5 mph - N/A   Clear
6:56 AM 64.0 °F 25.0 °F 23% 29.82 in 10.0 mi Calm Calm - N/A   Clear
7:56 AM 69.1 °F 26.1 °F 20% 29.83 in 10.0 mi Calm Calm - N/A   Clear
8:56 AM 73.0 °F 25.0 °F 17% 29.84 in 10.0 mi Calm Calm - N/A   Clear
9:56 AM 75.9 °F 28.9 °F 18% 29.85 in 10.0 mi Calm Calm - N/A   Clear
10:56 AM 79.0 °F 28.9 °F 16% 29.85 in 10.0 mi East 6.9 mph - N/A   Clear
11:56 AM 82.0 °F 28.0 °F 14% 29.84 in 10.0 mi Variable 5.8 mph - N/A   Clear
12:56 PM 84.0 °F 27.0 °F 13% 29.81 in 10.0 mi Calm Calm - N/A   Clear
1:56 PM 87.1 °F 26.1 °F 11% 29.80 in 10.0 mi Variable 5.8 mph - N/A   Clear
2:56 PM 90.0 °F 28.9 °F 11% 29.77 in 10.0 mi South 11.5 mph 19.6 mph N/A   Clear
3:38 PM 89.6 °F 30.2 °F 12% 29.80 in 10.0 mi South 12.7 mph 20.7 mph N/A   Clear
3:56 PM 89.1 °F 30.0 °F 12% 29.75 in 10.0 mi SSW 13.8 mph 17.3 mph N/A   Clear
4:56 PM 87.1 °F 30.9 °F 13% 29.74 in 10.0 mi SSW 18.4 mph 26.5 mph N/A   Clear
5:56 PM 84.9 °F 32.0 °F 15% 29.74 in 10.0 mi West 13.8 mph 21.9 mph N/A   Clear
6:56 PM 81.0 °F 33.1 °F 18% 29.75 in 10.0 mi West 16.1 mph - N/A   Clear
7:56 PM 77.0 °F 34.0 °F 21% 29.76 in 10.0 mi West 16.1 mph - N/A   Clear
8:56 PM 73.9 °F 34.0 °F 23% 29.78 in 10.0 mi SSW 3.5 mph - N/A   Clear
9:56 PM 73.0 °F 34.0 °F 24% 29.80 in 10.0 mi SW 4.6 mph - N/A   Clear
10:56 PM 70.0 °F 35.1 °F 28% 29.81 in 10.0 mi South 4.6 mph - N/A   Clear
11:56 PM 66.9 °F 36.0 °F 32% 29.81 in 10.0 mi Calm Calm - N/A   Clear